This is the latest recevied weather packets stored in our database for station/object OK1TBM-13. If no packets are shown the sender has not sent any weather packets the latest 10 day(s).
| Time | Temp. | Humidity | Pressure | Rain* | Wind** | Luminosity | Snow |
|---|---|---|---|---|---|---|---|
| 1788484501 | 15.56° C | 90% | 1016.3 hPa | 0 mm | - | 0 W/m² | - |
| 1788484201 | 15.56° C | 91% | 1016.3 hPa | 0 mm | - | 0 W/m² | - |
| 1788483901 | 15.56° C | 90% | 1016.3 hPa | 0 mm | - | 0 W/m² | - |
| 1788483601 | 15.56° C | 89% | 1016.3 hPa | 0 mm | - | 0 W/m² | - |
| 1788483302 | 16.11° C | 89% | 1016.3 hPa | 0 mm | - | 0 W/m² | - |
| 1788483002 | 16.11° C | 88% | 1016.3 hPa | 0 mm | - | 0 W/m² | - |
| 1788482702 | 16.11° C | 87% | 1016.6 hPa | 0 mm | - | 0 W/m² | - |
| 1788482402 | 16.67° C | 85% | 1016.6 hPa | 0 mm | - | 0 W/m² | - |
| 1788482102 | 16.11° C | 88% | 1016.6 hPa | 0 mm | - | 0 W/m² | - |
| 1788481802 | 16.11° C | 87% | 1016.6 hPa | 0 mm | - | 0 W/m² | - |
| 1788481502 | 16.67° C | 86% | 1016.6 hPa | 0 mm | - | 0 W/m² | - |
| 1788480902 | 16.67° C | 84% | 1016.6 hPa | 0 mm | - | 0 W/m² | - |
| 1788480602 | 17.22° C | 80% | 1016.6 hPa | 0 mm | - | 0 W/m² | - |
| 1788480302 | 17.22° C | 81% | 1016.6 hPa | 0 mm | - | 0 W/m² | - |
| 1788480002 | 17.22° C | 81% | 1016.9 hPa | 0 mm | - | 0 W/m² | - |
| 1788479702 | 17.22° C | 80% | 1016.9 hPa | 0 mm | - | 0 W/m² | - |
| 1788478801 | 17.78° C | 79% | 1016.6 hPa | 0 mm | - | 0 W/m² | - |
| 1788478501 | 17.22° C | 80% | 1016.9 hPa | 0 mm | - | 0 W/m² | - |
| 1788478201 | 17.22° C | 81% | 1016.9 hPa | 0 mm | - | 0 W/m² | - |
| 1788477901 | 17.22° C | 81% | 1016.9 hPa | 0 mm | - | 0 W/m² | - |
| 1788477602 | 16.67° C | 82% | 1016.9 hPa | 0 mm | - | 0 W/m² | - |
| 1788477301 | 16.67° C | 83% | 1016.9 hPa | 0 mm | - | 0 W/m² | - |
| 1788477002 | 16.67° C | 82% | 1017.3 hPa | 0 mm | - | 0 W/m² | - |
| 1788476702 | 16.67° C | 82% | 1017.3 hPa | 0 mm | - | 0 W/m² | - |
| 1788476402 | 17.22° C | 81% | 1017.3 hPa | 0 mm | - | 0 W/m² | - |
* Rain latest hour (hover to see other rain measurements)
** Current wind speed in m/s (hover to see current wind gust speed)